[[{"header":{"parameterUnit":"m.s-1","parameterCategory":1,"la1":30.2991,"la2":30.254,"lo1":-89.0895,"lo2":-89.0444,"dy":0.0017,"dx":0.0017,"nx":28,"ny":28,"refTime":"2024-12-25T03:00:00:Z","depth":0,"parameterNumber":2,"parameterNumberName":"U-component_of_WINDS"},"data":[0,0,0,0,0,0,0,0,0,0,0,0,0,0,0,0,0,0,0,0,0,0,0,0,0,0,0,0,0,0,0,0,0,0,0,0,0,0,0,0,0,0,0,0,0,0,0,0,0,0,0,0,0,0,0,0,0,0,-3.8709,-3.8708,0,-3.8672,-3.8672,-3.8671,-3.85,-3.8496,-3.8492,-3.8488,-3.8452,-3.8455,-3.8458,0,0,0,0,0,0,0,0,0,0,0,0,0,-3.8634,-3.8636,-3.8709,-3.8708,-3.8708,-3.8672,-3.8672,-3.8671,-3.85,-3.8495,-3.849,-3.8486,-3.8451,-3.8455,-3.8458,0,0,0,0,0,0,0,0,0,0,0,0,0,-3.8639,-3.8637,-3.8709,-3.8618,-3.861,-3.8672,-3.8672,-3.8671,-3.8501,-3.8495,-3.8489,-3.8484,-3.845,-3.8455,-3.8459,-3.8606,0,0,-3.8472,-3.8473,0,0,0,0,0,0,0,0,-3.8639,-3.8642,-3.8632,-3.8625,-3.8615,-3.8584,-3.8632,-3.8649,-3.8503,-3.8543,-3.8488,-3.8481,-3.8501,-3.8501,-3.8507,-3.8605,-3.8603,-3.8472,-3.8475,-3.8476,-3.8478,0,0,0,0,0,0,0,-3.8639,-3.8643,-3.8694,-3.8632,-3.8622,-3.8581,-3.8575,-3.8635,-3.8557,-3.8539,-3.8526,-3.8524,-3.8496,-3.8504,-3.8505,-3.8602,-3.8472,-3.8476,-3.8478,-3.848,-3.8822,-3.8828,0,0,0,0,0,0,-3.8651,-3.8643,-3.8695,-3.8693,-3.8612,-3.8587,-3.858,-3.86,-3.8555,-3.8543,-3.8529,-3.8516,-3.85,-3.8501,-3.8504,-3.8675,-3.8476,-3.848,-3.8483,-3.8815,-3.8823,-3.883,0,0,0,0,0,0,-3.865,-3.8657,-3.8697,-3.8665,-3.8667,-3.8595,-3.8619,-3.8603,-3.8611,-3.8548,-3.8534,-3.8552,-3.8495,-3.8498,-3.8582,-3.8671,-3.8482,-3.8486,-3.8808,-3.8818,-3.8827,-3.9019,0,0,0,0,0,0,-3.8649,-3.8658,-3.8712,-3.8667,-3.8669,-3.8776,-3.8624,-3.8606,-3.8618,-3.8601,-3.8566,-3.8554,-3.849,-3.8577,-3.8587,-3.8674,-3.8489,-3.8799,-3.8812,-3.8824,-3.9004,-3.9034,-3.9059,0,0,0,0,0,-3.8646,-3.8768,-3.8716,-3.8723,-3.8735,-3.8781,-3.8782,-3.8706,-3.8626,-3.8681,-3.8641,-3.8555,-3.866,-3.8587,-3.8597,-3.8686,-3.8793,-3.8808,-3.8823,-3.8992,-3.9028,-3.9059,0,0,0,0,0,0,-3.8825,-3.876,-3.8702,-3.8812,-3.8804,-3.8752,-3.8819,-3.8747,-3.8761,-3.8744,-3.8649,-3.8643,-3.8743,-3.8722,-3.8642,-3.8828,-3.8712,-3.873,-3.8838,-3.8872,-3.8899,-3.8902,-3.8493,0,0,0,0,0,-3.8877,-3.8919,-3.886,-3.8963,-3.8962,-3.8892,-3.8909,-3.8851,-3.8839,-3.8834,-3.88,-3.8793,-3.8824,-3.8846,-3.8871,-3.9,-3.8991,-3.9067,-3.9095,-3.9118,-3.9134,-3.9203,-3.9237,-3.8879,-3.8878,-3.8878,0,0,-3.8985,-3.8955,-3.8987,-3.8998,-3.8984,-3.9032,-3.889,-3.8944,-3.8979,-3.8842,-3.8921,-3.8897,-3.8882,-3.899,-3.9036,-3.8976,-3.9231,-3.9136,-3.9155,-3.9159,-3.9222,-3.9256,-3.9286,-3.8888,-3.8887,-3.8885,0,0,-3.9206,-3.9186,-3.9271,-3.9261,-3.9243,-3.9196,-3.9217,-3.9177,-3.9156,-3.9233,-3.9132,-3.9172,-3.9227,-3.9222,-3.9226,-3.9449,-3.9371,-3.946,-3.9604,-3.9673,-3.9701,-3.9726,-3.9807,-3.9837,-3.9476,-3.9476,-3.9477,0,-3.9342,-3.9408,-3.9324,-3.9386,-3.9395,-3.9274,-3.936,-3.9355,-3.9347,-3.9356,-3.9289,-3.9358,-3.9339,-3.9446,-3.95,-3.9507,-3.953,-3.9463,-3.9704,-3.9727,-3.9749,-3.9826,-3.9856,-3.9487,-3.9486,-3.9485,-3.9484,0,-3.9578,-3.9626,-3.9696,-3.9692,-3.9708,-3.9782,-3.9711,-3.9738,-3.968,-3.9641,-3.9723,-3.9696,-3.9715,-3.9736,-3.9679,-3.9836,-3.98,-3.972,-3.9602,-3.9796,-3.9866,-3.9895,-3.9503,-3.9499,-3.9496,-3.9493,0,0,-3.9909,-3.9858,-3.9886,-3.9883,-3.9856,-3.9891,-3.9961,-3.998,-4.0006,-4.0005,-4.0062,-4.0113,-4.004,-4.0045,-3.9987,-4.0047,-4.0228,-3.996,-3.9958,-4.0012,-4.0402,-4.0463,-4.0498,-4.0176,-4.0181,-4.0186,-4.0404,0,-4.0121,-4.0236,-4.0164,-4.0292,-4.0336,-4.0223,-4.0284,-4.0275,-4.0241,-4.0275,-4.0237,-4.0275,-4.0174,-4.0177,-4.0232,-4.0195,-4.0305,-4.0178,-4.0231,-4.0233,-4.0239,-4.0535,-4.0599,-4.0806,-4.0431,-4.0435,-4.0438,0,-4.0384,-4.0395,-4.0527,-4.0494,-4.0509,-4.0566,-4.0578,-4.0611,-4.0599,-4.057,-4.0578,-4.0506,-4.0573,-4.0457,-4.055,-4.0465,-4.0483,-4.0468,-4.0474,-4.0477,-4.0349,-4.0547,-4.087,-4.0902,-4.0481,-4.0477,-4.0474,0,-4.0614,-4.0662,-4.0748,-4.0749,-4.0712,-4.0754,-4.0741,-4.0723,-4.074,-4.0751,-4.0761,-4.0781,-4.0792,-4.0809,-4.0745,-4.0666,-4.0848,-4.0725,-4.0828,-4.083,-4.0871,-4.087,-4.1204,-4.0882,-4.0881,-4.088,-4.088,0,-4.0859,-4.0945,-4.0851,-4.0905,-4.0998,-4.0915,-4.1011,-4.0985,-4.0971,-4.1018,-4.0922,-4.0968,-4.088,-4.0918,-4.0868,-4.0955,-4.096,-4.094,-4.0926,-4.0949,-4.0952,-4.096,-4.0944,-4.0889,-4.0887,-4.0885,-4.0884,0,-4.1132,-4.1073,-4.1159,-4.1117,-4.1109,-4.118,-4.1145,-4.1193,-4.1153,-4.1215,-4.1224,-4.1163,-4.1203,-4.114,-4.1173,-4.114,-4.126,-4.1223,-4.1265,-4.1254,-4.1361,-4.1352,-4.1712,-4.1756,-4.1405,-4.1408,-4.1411,0,-4.1293,-4.1357,-4.1322,-4.1347,-4.1339,-4.138,-4.1397,-4.1319,-4.1341,-4.1334,-4.1384,-4.1416,-4.1438,-4.1508,-4.1467,-4.1493,-4.1457,-4.1581,-4.146,-4.1483,-4.1461,-4.1458,-4.1465,-4.1606,-4.1611,-4.1614,-4.1617,0,-4.1586,-4.1554,-4.1581,-4.1601,-4.1624,-4.1635,-4.1639,-4.1665,-4.1583,-4.1613,-4.1653,-4.167,-4.1705,-4.174,-4.1755,-4.1742,-4.1668,-4.1656,-4.1681,-4.1706,-4.1728,-4.1719,-4.1334,-4.1648,-4.1644,-4.1642,-4.1641,-4.1639,-4.1808,-4.186,-4.1845,-4.188,-4.1875,-4.1882,-4.1926,-4.1893,-4.1925,-4.1947,-4.1899,-4.1953,-4.1942,-4.1955,-4.1951,-4.1992,-4.1938,-4.1974,-4.1983,-4.1994,-4.2011,-4.1721,-4.1995,-4.1994,-4.1993,-4.1992,-4.1991,0,-4.2096,-4.2082,-4.2115,-4.2125,-4.2153,-4.208,-4.2082,-4.2111,-4.2159,-4.2155,-4.2179,-4.2227,-4.226,-4.2223,-4.225,-4.2291,-4.2257,-4.23,-4.2297,-4.2296,-4.2057,-4.2034,-4.2327,-4.2327,-4.2327,-4.2327,-4.2327,-4.2327,-4.225,-4.2335,-4.2303,-4.2386,-4.237,-4.2421,-4.2429,-4.2436,-4.2432,-4.2491,-4.2518,-4.2493,-4.2477,-4.2502,-4.2531,-4.2519,-4.2534,-4.259,-4.2567,-4.2345,-4.2312,-4.2281,-4.2258,-4.2594,-4.2594,-4.2802,-4.2804,-4.2805]},{"header":{"parameterUnit":"m.s-1","parameterCategory":1,"la1":30.2991,"la2":30.254,"lo1":-89.0895,"lo2":-89.0444,"dy":0.0017,"dx":0.0017,"nx":28,"ny":28,"refTime":"2024-12-25T03:00:00:Z","depth":0,"parameterNumber":3,"parameterNumberName":"V-component_of_WINDS"},"data":[0,0,0,0,0,0,0,0,0,0,0,0,0,0,0,0,0,0,0,0,0,0,0,0,0,0,0,0,0,0,0,0,0,0,0,0,0,0,0,0,0,0,0,0,0,0,0,0,0,0,0,0,0,0,0,0,0,0,0.3053,0.3053,0,0.304,0.304,0.304,0.3085,0.3086,0.3087,0.3089,0.307,0.3068,0.3066,0,0,0,0,0,0,0,0,0,0,0,0,0,0.3113,0.3112,0.3053,0.3053,0.3052,0.304,0.304,0.3039,0.3084,0.3086,0.3088,0.3089,0.307,0.3068,0.3066,0,0,0,0,0,0,0,0,0,0,0,0,0,0.3092,0.3111,0.3053,0.3073,0.3075,0.304,0.304,0.3039,0.3084,0.3086,0.3088,0.309,0.3071,0.3069,0.3066,0.3008,0,0,0.3058,0.3057,0,0,0,0,0,0,0,0,0.3093,0.309,0.3071,0.3072,0.3074,0.3066,0.3054,0.3029,0.3084,0.308,0.3089,0.3091,0.3067,0.3064,0.3057,0.3007,0.3007,0.3058,0.3056,0.3055,0.3054,0,0,0,0,0,0,0,0.3094,0.309,0.3047,0.307,0.3072,0.3082,0.3082,0.3049,0.3062,0.3081,0.3084,0.3082,0.3068,0.306,0.3057,0.3006,0.3058,0.3055,0.3054,0.3053,0.291,0.2907,0,0,0,0,0,0,0.3094,0.3091,0.3048,0.3047,0.3089,0.308,0.3079,0.3066,0.3062,0.3064,0.3081,0.3084,0.3063,0.306,0.3057,0.2989,0.3055,0.3052,0.3051,0.2912,0.2909,0.2907,0,0,0,0,0,0,0.3095,0.3089,0.3048,0.307,0.3066,0.3076,0.3062,0.3065,0.3057,0.3062,0.3064,0.307,0.3065,0.306,0.3021,0.2989,0.3051,0.3049,0.2914,0.2911,0.2908,0.2853,0,0,0,0,0,0,0.3096,0.309,0.3068,0.3069,0.3064,0.3013,0.306,0.3063,0.3053,0.3058,0.3053,0.3054,0.3066,0.3024,0.3018,0.2986,0.3047,0.2917,0.2913,0.2909,0.2858,0.2848,0.284,0,0,0,0,0,0.3098,0.3052,0.3067,0.3062,0.3038,0.3011,0.3008,0.3024,0.305,0.3029,0.3032,0.3054,0.2994,0.302,0.3013,0.298,0.2919,0.2914,0.2909,0.2861,0.285,0.284,0,0,0,0,0,0,0.3044,0.3052,0.3069,0.3022,0.3016,0.3019,0.2992,0.3012,0.2997,0.3002,0.3021,0.3019,0.2976,0.2975,0.3003,0.2925,0.2961,0.2954,0.2927,0.2916,0.2908,0.2908,0.3044,0,0,0,0,0,0.3028,0.3006,0.3014,0.2972,0.2968,0.2981,0.2969,0.2983,0.2977,0.2974,0.2974,0.2966,0.2946,0.2931,0.2912,0.2859,0.2858,0.2833,0.2824,0.2817,0.281,0.2782,0.2771,0.289,0.289,0.2891,0,0,0.2991,0.2993,0.2978,0.2961,0.2958,0.2934,0.2978,0.2951,0.2933,0.2969,0.2932,0.2932,0.2924,0.2877,0.2857,0.2875,0.2778,0.2811,0.2805,0.2802,0.2776,0.2764,0.2754,0.2887,0.2888,0.2888,0,0,0.2913,0.2913,0.2878,0.2874,0.287,0.2879,0.2871,0.2872,0.2874,0.2838,0.2865,0.2844,0.2808,0.2801,0.2793,0.2716,0.2735,0.2709,0.2662,0.2634,0.2625,0.2616,0.2588,0.2577,0.2703,0.2703,0.2703,0,0.2867,0.2834,0.2856,0.2828,0.282,0.2854,0.2818,0.2814,0.2803,0.2795,0.2817,0.2774,0.2771,0.2723,0.2704,0.2697,0.2687,0.2708,0.2625,0.2617,0.2609,0.2582,0.2571,0.2699,0.27,0.27,0.27,0,0.2779,0.2756,0.2728,0.2719,0.2707,0.2675,0.2692,0.2677,0.2693,0.2699,0.2662,0.2661,0.2642,0.2633,0.2646,0.2587,0.2598,0.2622,0.2658,0.2594,0.2569,0.2559,0.2695,0.2696,0.2697,0.2698,0,0,0.2662,0.2669,0.2658,0.2654,0.2654,0.2636,0.2606,0.259,0.2577,0.257,0.2544,0.2514,0.2537,0.2528,0.2541,0.2517,0.2455,0.2544,0.2544,0.2526,0.2389,0.2369,0.2357,0.247,0.2468,0.2466,0.2389,0,0.2584,0.2534,0.2555,0.2502,0.2481,0.2515,0.2489,0.2485,0.2491,0.2473,0.248,0.2458,0.249,0.2485,0.2463,0.2467,0.2427,0.2474,0.2444,0.2442,0.2442,0.2344,0.2323,0.225,0.2379,0.2378,0.2376,0,0.2486,0.2477,0.2422,0.2427,0.2419,0.2395,0.2383,0.2366,0.2363,0.2369,0.2361,0.238,0.235,0.2389,0.2347,0.2378,0.2368,0.2368,0.2366,0.2361,0.2404,0.2335,0.2227,0.2215,0.2361,0.2363,0.2364,0,0.2405,0.2379,0.2343,0.234,0.2345,0.2327,0.2328,0.2327,0.2317,0.2307,0.23,0.2286,0.2277,0.2265,0.228,0.2307,0.2235,0.2275,0.2238,0.2237,0.2219,0.2219,0.2105,0.2216,0.2216,0.2216,0.2216,0,0.2314,0.2279,0.2307,0.2285,0.2247,0.2271,0.2233,0.2237,0.2237,0.2215,0.2244,0.2223,0.2246,0.2226,0.2238,0.2201,0.2197,0.22,0.2203,0.2196,0.2196,0.2188,0.2192,0.2213,0.2214,0.2214,0.2215,0,0.2216,0.2233,0.2197,0.2206,0.2207,0.2179,0.2186,0.2165,0.2175,0.2148,0.2143,0.2157,0.2136,0.2151,0.213,0.2138,0.2089,0.21,0.209,0.2092,0.2054,0.2056,0.1929,0.1913,0.2035,0.2034,0.2033,0,0.2155,0.213,0.2137,0.2126,0.2126,0.2107,0.2098,0.2121,0.211,0.2106,0.2086,0.2068,0.2055,0.202,0.2027,0.2012,0.2021,0.1978,0.2019,0.2013,0.2018,0.2019,0.2016,0.1968,0.1967,0.1966,0.1965,0,0.2046,0.2057,0.2044,0.2033,0.2022,0.2015,0.2009,0.1998,0.2022,0.2008,0.1989,0.1979,0.1959,0.194,0.1928,0.1927,0.1949,0.1953,0.1943,0.1934,0.1929,0.193,0.2065,0.1954,0.1956,0.1956,0.1957,0.1957,0.1964,0.1943,0.1946,0.193,0.1929,0.1924,0.1905,0.1914,0.1899,0.1886,0.1901,0.1877,0.1875,0.1861,0.1858,0.1839,0.1857,0.1843,0.1839,0.1834,0.1828,0.1934,0.1837,0.1837,0.1838,0.1838,0.1838,0,0.1855,0.1859,0.1845,0.1838,0.1825,0.1851,0.1847,0.1834,0.1813,0.1811,0.1799,0.1777,0.176,0.1767,0.1752,0.1735,0.1745,0.173,0.173,0.173,0.1814,0.1823,0.1723,0.1723,0.1723,0.1723,0.1723,0.1723,0.1797,0.1763,0.1774,0.174,0.1745,0.1723,0.1718,0.1714,0.1712,0.1687,0.1674,0.168,0.1682,0.1667,0.1653,0.1655,0.1647,0.1629,0.1634,0.1712,0.1724,0.1734,0.1743,0.1627,0.1627,0.1552,0.1551,0.155]}]]